Station ITKA2 - 9451600 - Sitka, AK Image indicating link to RSS feed of recent meteorological observations for station ITKA2


Conditions at ITKA2 as of
(12:30 pm AKDT)
2030 GMT on 07/19/2024:
     

Click on the graph icon in the table below to see a time series plot of the last five days of that observation.

5-day plot - Atmospheric Pressure Atmospheric Pressure (PRES):30.05 in
5-day plot - Air Temperature Air Temperature (ATMP): 62.2 °F
5-day plot - Water Temperature Water Temperature (WTMP): 54.3 °F
NOS Water Level Observation Network Water Level
Previous observations
TIME
(AKDT)
5-day plot - Wind Direction
WDIR
 
5-day plot - Wind Speed
WSPD
kts
5-day plot - Wind Gust
GST
kts
5-day plot - Wave Height
WVHT
ft
5-day plot - Dominant Wave Period
DPD
sec
5-day plot - Average Wave Period
APD
sec
5-day plot - Mean Wave Direction
MWD
 
5-day plot - Atmospheric Pressure
PRES
in
5-day plot - Pressure Tendency
PTDY
in
5-day plot - Air Temperature
ATMP
°F
5-day plot - Water Temperature
WTMP
°F
5-day plot - Dew Point
DEWP
°F
5-day plot - Salinity
SAL
psu
5-day plot - Visibility
VIS
nmi
5-day plot - Tide (above MLLW)
TIDE
ft
2024-07-19 12:24 pm-------30.05- 61.7 54.3----
2024-07-19 12:18 pm-------30.05- 61.5 54.1----
2024-07-19 12:12 pm-------30.04- 61.3 54.1----
2024-07-19 12:06 pm-------30.04- 61.5 54.1----
2024-07-19 12:00 pm-------30.04+0.04 61.3 54.1----
2024-07-19 11:54 am-------30.03- 61.2 54.1----
2024-07-19 11:48 am-------30.03- 61.2 54.1----
2024-07-19 11:42 am-------30.03- 61.5 54.3----
2024-07-19 11:36 am-------30.03- 61.7 54.3----
2024-07-19 11:30 am-------30.02- 61.5 54.3----
2024-07-19 11:24 am-------30.02- 61.3 54.3----
2024-07-19 11:18 am-------30.02- 60.8 54.3----
2024-07-19 11:12 am-------30.01- 60.4 54.3----
2024-07-19 11:06 am-------30.01- 60.1 54.3----
2024-07-19 11:00 am-------30.01+0.02 59.9 54.3----
2024-07-19 10:54 am-------30.01- 60.1 54.3----
2024-07-19 10:48 am-------30.01- 59.5 54.3----
2024-07-19 10:42 am-------30.01- 59.7 54.3----
2024-07-19 10:36 am-------30.01- 59.7 54.3----
2024-07-19 10:30 am-------30.01- 59.4 54.3----
2024-07-19 10:24 am-------30.00- 59.4 54.3----
2024-07-19 10:18 am-------30.00- 59.2 54.5----
2024-07-19 10:12 am-------30.00- 59.2 54.5----
2024-07-19 10:06 am-------30.00- 59.0 54.5----
2024-07-19 10:00 am-------30.00+0.00 58.8 54.5----
2024-07-19 09:54 am-------30.00- 59.0 54.5----
2024-07-19 09:48 am-------30.00- 59.0 54.5----
2024-07-19 09:42 am-------30.00- 59.0 54.5----
2024-07-19 09:36 am-------30.00- 59.0 54.5----
2024-07-19 09:30 am-------30.00- 59.0 54.5----
2024-07-19 09:24 am-------30.00- 58.8 54.7----
2024-07-19 09:18 am-------30.00- 58.8 54.7----
2024-07-19 09:12 am-------30.00- 58.6 54.7----
2024-07-19 09:06 am-------30.00- 58.5 54.9----
2024-07-19 09:00 am-------30.00+0.01 58.5 54.9----
2024-07-19 08:54 am-------30.00- 58.5 54.9----
2024-07-19 08:48 am-------30.00- 58.5 55.0----
2024-07-19 08:42 am-------30.00- 58.3 55.0----
2024-07-19 08:36 am-------30.00- 58.3 55.0----
2024-07-19 08:30 am-------30.00- 58.3 55.2----
2024-07-19 08:24 am-------30.01- 58.5 55.2----
2024-07-19 08:18 am-------30.01- 58.6 55.2----
2024-07-19 08:12 am-------30.00- 58.8 55.4----
2024-07-19 08:06 am-------30.00- 58.6 55.4----
2024-07-19 08:00 am-------29.99+0.01 58.5 55.4----
2024-07-19 07:54 am-------29.99- 58.5 55.6----
2024-07-19 07:48 am-------29.99- 58.5 55.6----
2024-07-19 07:42 am-------29.99- 58.3 55.6----
2024-07-19 07:36 am-------30.00- 58.3 55.4----
2024-07-19 07:30 am-------30.00- 58.5 55.4----
2024-07-19 07:24 am-------30.00- 58.5 55.4----
2024-07-19 07:18 am-------30.00- 58.6 55.4----
2024-07-19 07:12 am-------30.00- 58.3 55.6----
2024-07-19 07:06 am-------30.00- 58.1 55.6----
2024-07-19 07:00 am-------30.00+0.01 57.9 55.6----
2024-07-19 06:54 am-------30.00- 57.7 55.6----
2024-07-19 06:48 am-------30.01- 57.7 55.6----
2024-07-19 06:42 am-------30.01- 57.6 55.6----
2024-07-19 06:36 am-------30.01- 57.6 55.6----
2024-07-19 06:30 am-------30.01- 57.6 55.6----
2024-07-19 06:24 am-------30.01- 57.7 55.6----
2024-07-19 06:18 am-------30.01- 57.7 55.6----
2024-07-19 06:12 am-------30.00- 57.7 55.6----
2024-07-19 06:06 am-------29.99- 57.6 55.6----
2024-07-19 06:00 am-------29.98+0.00 57.4 55.6----
2024-07-19 05:54 am-------29.98- 57.4 55.6----
2024-07-19 05:48 am-------29.98- 57.4 55.6----
2024-07-19 05:42 am-------29.98- 57.4 55.6----
2024-07-19 05:36 am-------29.98- 57.4 55.6----
2024-07-19 05:30 am-------29.98- 57.4 55.4----
2024-07-19 05:24 am-------29.98- 57.2 55.4----
2024-07-19 05:18 am-------29.98- 57.2 55.4----
2024-07-19 05:12 am-------29.98- 57.2 55.4----
2024-07-19 05:06 am-------29.98- 57.2 55.4----
2024-07-19 05:00 am-------29.98-0.01 57.2 55.2----
2024-07-19 04:54 am-------29.98- 57.4 55.4----
2024-07-19 04:48 am-------29.98- 57.2 55.2----
2024-07-19 04:42 am-------29.98- 57.2 55.2----
2024-07-19 04:36 am-------29.98- 57.4 55.2----
2024-07-19 04:30 am-------29.98- 57.4 55.2----
2024-07-19 04:24 am-------29.98- 57.4 55.0----
2024-07-19 04:18 am-------29.98- 57.2 55.2----
2024-07-19 04:12 am-------29.98- 57.4 55.0----
2024-07-19 04:06 am-------29.98- 57.4 55.0----
2024-07-19 04:00 am-------29.98-0.02 57.4 55.0----
2024-07-19 03:54 am-------29.98- 57.4 55.0----
2024-07-19 03:48 am-------29.98-- 55.0----
2024-07-19 03:42 am-------29.98-- 54.9----
2024-07-19 03:36 am-------29.98-- 54.9----
2024-07-19 03:30 am-------29.98- 57.4 54.9----
2024-07-19 03:24 am-------29.98- 57.4 54.9----
2024-07-19 03:18 am-------29.98- 57.4 54.9----
2024-07-19 03:12 am-------29.98- 57.4 54.9----
2024-07-19 03:06 am-------29.98- 57.4 54.9----
2024-07-19 03:00 am-------29.98-0.04 57.6 54.7----
2024-07-19 02:54 am-------29.98- 57.4 54.7----
2024-07-19 02:48 am-------29.99-- 54.7----
2024-07-19 02:42 am-------29.99-- 54.7----
2024-07-19 02:36 am-------29.99-- 54.7----
2024-07-19 02:30 am-------29.99- 57.6 54.7----
2024-07-19 02:24 am-------29.99- 57.6 54.7----
2024-07-19 02:18 am-------29.99- 57.6 54.7----
2024-07-19 02:12 am-------29.99- 57.6 54.7----
2024-07-19 02:06 am-------29.99- 57.6 54.7----
2024-07-19 02:00 am-------29.99-0.03 57.4 54.5----
2024-07-19 01:54 am-------29.99- 57.4 54.7----
2024-07-19 01:48 am-------30.00- 57.4 54.5----
2024-07-19 01:42 am-------30.00- 57.4 54.5----
2024-07-19 01:36 am-------30.00- 57.2 54.5----
2024-07-19 01:30 am-------30.00- 57.4 54.5----
2024-07-19 01:24 am-------30.00- 57.4 54.5----
2024-07-19 01:18 am-------30.00- 57.2 54.5----
2024-07-19 01:12 am-------30.00- 57.2 54.5----
2024-07-19 01:06 am-------30.00- 57.2 54.5----
2024-07-19 01:00 am-------30.00-0.02 57.2 54.3----
2024-07-19 12:54 am-------30.01- 57.2 54.5----
2024-07-19 12:48 am-------30.01- 57.4 54.5----
2024-07-19 12:42 am-------30.01- 57.4 54.3----
2024-07-19 12:36 am-------30.01- 57.4 54.3----
2024-07-19 12:30 am-------30.01- 57.4 54.3----
2024-07-19 12:24 am-------30.01- 57.6 54.3----
2024-07-19 12:18 am-------30.01- 57.6 54.3----
2024-07-19 12:12 am-------30.02- 57.6 54.3----
2024-07-19 12:06 am-------30.02- 57.6 54.3----
2024-07-19 12:00 am-------30.02+0.00 57.7 54.3----
2024-07-18 11:54 pm-------30.02- 57.7 54.3----
2024-07-18 11:48 pm-------30.02- 57.9 54.3----
2024-07-18 11:42 pm-------30.02- 57.7 54.3----
2024-07-18 11:36 pm-------30.02- 57.7 54.3----
2024-07-18 11:30 pm-------30.02- 57.9 54.3----
2024-07-18 11:24 pm-------30.02- 57.7 54.1----
2024-07-18 11:18 pm-------30.02- 57.9 54.3----
2024-07-18 11:12 pm-------30.02- 58.1 54.3----
2024-07-18 11:06 pm-------30.03- 58.3 54.3----
2024-07-18 11:00 pm-------30.02+0.00 58.5 54.3----
2024-07-18 10:54 pm-------30.02- 58.5 54.3----
2024-07-18 10:48 pm-------30.03- 58.8 54.3----
2024-07-18 10:42 pm-------30.03- 59.0 54.3----
2024-07-18 10:36 pm-------30.03- 59.2 54.3----
2024-07-18 10:30 pm-------30.03- 59.7 54.3----
2024-07-18 10:24 pm-------30.03- 59.5 54.3----
2024-07-18 10:18 pm-------30.03- 59.5 54.3----
2024-07-18 10:12 pm-------30.03- 59.9 54.3----
2024-07-18 10:06 pm-------30.02- 59.9 54.3----
2024-07-18 10:00 pm-------30.02+0.00 60.3 54.3----
2024-07-18 09:54 pm-------30.02- 60.3 54.3----
2024-07-18 09:48 pm-------30.02- 60.4-----
2024-07-18 09:42 pm-------30.02- 60.6-----
2024-07-18 09:36 pm-------30.02- 60.8-----
2024-07-18 09:30 pm-------30.02- 60.8 54.3----
2024-07-18 09:24 pm-------30.02- 61.2 54.5----
2024-07-18 09:18 pm-------30.02- 61.2 54.5----
2024-07-18 09:12 pm-------30.01- 61.3 54.5----
2024-07-18 09:06 pm-------30.02- 61.9 54.5----
2024-07-18 09:00 pm-------30.02-0.01 62.2 54.5----
2024-07-18 08:54 pm-------30.01- 62.2 54.5----
2024-07-18 08:48 pm-------30.02- 62.6 54.5----
2024-07-18 08:42 pm-------30.02- 63.0 54.5----
2024-07-18 08:36 pm-------30.02- 63.5 54.5----
2024-07-18 08:30 pm-------30.02- 64.2 54.5----
2024-07-18 08:24 pm-------30.02- 64.8 54.5----
2024-07-18 08:18 pm-------30.02- 65.7 54.5----
2024-07-18 08:12 pm-------30.02- 65.8 54.5----
2024-07-18 08:06 pm-------30.02- 66.0 54.5----
2024-07-18 08:00 pm-------30.02-0.01 66.2 54.5----
2024-07-18 07:54 pm-------30.02- 66.2 54.5----
2024-07-18 07:48 pm-------30.02- 66.4 54.5----
2024-07-18 07:42 pm-------30.02- 66.6 54.5----
2024-07-18 07:36 pm-------30.02- 67.5 54.5----
2024-07-18 07:30 pm-------30.02- 66.7 54.5----
2024-07-18 07:24 pm-------30.02- 66.7 54.5----
2024-07-18 07:18 pm-------30.02- 66.0 54.5----
2024-07-18 07:12 pm-------30.03- 66.4 54.5----
2024-07-18 07:06 pm-------30.03- 66.7 54.5----
2024-07-18 07:00 pm-------30.03-0.02 66.6 54.5----
2024-07-18 06:54 pm-------30.02- 66.9 54.7----
2024-07-18 06:48 pm-------30.02- 68.4 54.7----
2024-07-18 06:42 pm-------30.03- 67.6 54.7----
2024-07-18 06:36 pm-------30.03- 67.5 54.7----
2024-07-18 06:30 pm-------30.03- 66.9 54.7----
2024-07-18 06:24 pm-------30.03- 66.0 54.7----
2024-07-18 06:18 pm-------30.03- 66.7 54.7----
2024-07-18 06:12 pm-------30.03- 66.2 54.7----
2024-07-18 06:06 pm-------30.03- 68.2 54.7----
2024-07-18 06:00 pm-------30.03-0.01 67.8 54.7----
2024-07-18 05:54 pm-------30.03- 68.0 54.7----
2024-07-18 05:48 pm-------30.03- 67.6 54.7----
2024-07-18 05:42 pm-------30.03- 69.1 54.7----
2024-07-18 05:36 pm-------30.03- 68.4 54.7----
2024-07-18 05:30 pm-------30.03- 67.8 54.7----
2024-07-18 05:24 pm-------30.03- 68.4 54.7----
2024-07-18 05:18 pm-------30.03- 67.5 54.7----
2024-07-18 05:12 pm-------30.03- 67.8 54.7----
2024-07-18 05:06 pm-------30.03- 68.4 54.7----
2024-07-18 05:00 pm-------30.03+0.00 68.4 54.7----
2024-07-18 04:54 pm-------30.03- 69.6 54.7----
2024-07-18 04:48 pm-------30.03- 69.4 54.7----
2024-07-18 04:42 pm-------30.03- 68.2 54.7----
2024-07-18 04:36 pm-------30.04- 67.8 54.7----
2024-07-18 04:30 pm-------30.04- 68.7 54.7----
2024-07-18 04:24 pm-------30.04- 68.5 54.7----
2024-07-18 04:18 pm-------30.04- 68.5 54.7----
2024-07-18 04:12 pm-------30.04- 68.5 54.7----
2024-07-18 04:06 pm-------30.04- 67.1 54.7----
2024-07-18 04:00 pm-------30.04+0.01 67.1 54.7----
2024-07-18 03:54 pm-------30.04- 66.6 54.7----
2024-07-18 03:48 pm-------30.04- 66.4 54.7----
2024-07-18 03:42 pm-------30.04- 66.4 54.7----
2024-07-18 03:36 pm-------30.04- 66.2 54.7----
2024-07-18 03:30 pm-------30.04- 66.9 54.7----
2024-07-18 03:24 pm-------30.04- 66.2 54.7----
2024-07-18 03:18 pm-------30.04- 66.4 54.7----
2024-07-18 03:12 pm-------30.04- 65.5 54.7----
2024-07-18 03:06 pm-------30.04- 65.3 54.7----
2024-07-18 03:00 pm-------30.04+0.01 64.2 54.7----
2024-07-18 02:54 pm-------30.04- 64.4 54.7----
2024-07-18 02:48 pm-------30.04- 65.5 54.7----
2024-07-18 02:42 pm-------30.04- 65.1 54.7----
2024-07-18 02:36 pm-------30.04- 64.9 54.7----
2024-07-18 02:30 pm-------30.04- 63.9 54.7----
2024-07-18 02:24 pm-------30.04- 64.4 54.7----
2024-07-18 02:18 pm-------30.04- 64.4 54.7----
2024-07-18 02:12 pm-------30.04- 64.2 54.7----
2024-07-18 02:06 pm-------30.03- 64.4 54.5----
2024-07-18 02:00 pm-------30.03+0.01 64.4 54.5----
2024-07-18 01:54 pm-------30.03- 64.4 54.5----
2024-07-18 01:48 pm-------30.04- 66.6 54.5----
2024-07-18 01:42 pm-------30.03- 65.7 54.5----
2024-07-18 01:36 pm-------30.04- 65.7 54.5----
2024-07-18 01:30 pm-------30.04- 65.7 54.5----
2024-07-18 01:24 pm-------30.03- 65.5 54.5----
2024-07-18 01:18 pm-------30.03- 66.7 54.5----
2024-07-18 01:12 pm-------30.03- 66.4 54.5----
2024-07-18 01:06 pm-------30.03- 66.6 54.5----
2024-07-18 01:00 pm-------30.03+0.01 66.4 54.5----
2024-07-18 12:54 pm-------30.03- 67.3 54.5----